Location: Bun Machan
(52.1403°N, 7.3744°W)
Time: 18:59:28
(UTC+00:00)

EP 1 - Pass Details

Date: 14 July 2020
Orbit: 314 x 1668 km, 63.3° (Epoch: 25 August)

Event Time Altitude Azimuth Distance (km) Brightness Sun altitude
Exits shadow 02:41:14 21° 214° (SW) 852 5.7 -11.3°
Maximum altitude 02:42:55 70° 134° (SE) 354 4.3 -11.2°
Drops below altitude 10° 02:45:29 10° 50° (NE) 1,226 8.4 -11.0°
Sets 02:47:23 0° 47° (NE) 2,073 9.9 -10.8°
